Погода в Малмыже

Россия / Кировская область     56°31′28″N   50°40′41″E
темп.,
°C
ветер,
м/с
пор.,
м/с
влажн.,
%
обл.,
%
осадки,
мм/ч
давл.,
гПа
погр.,
м
20 апреля, вт
вт2000:00−1в310560 0.0 1033228
03:00−1в310560 0.0 1033216
06:000в48520 0.0 1034279
09:00+6юв57340 0.0 10341040
12:00+8вюв57270 0.0 10331382
15:00+9вюв67270 0.0 10311367
18:00+6вюв37400 0.0 1031145
21:00+2вюв410530 0.0 1031184
21 апреля, ср
ср2100:00+1вюв4115897 0.0 1030218
03:000вюв41161100 0.0 1030224
06:00+3юв61552100 0.0 1028554
09:00+7юв91540100 0.0 1027896
12:00+8юв81438100 0.1 10251083
15:00+9ююв91436100 0.1 10241346
18:00+6ю81556100 0.0 10241065
21:00+2ююв91894100 1.6 1024897
22 апреля, чт
чт2200:00+2ююв81696100 3.1 1023751
03:00+3ю71397100 3.9 1023685
06:00+3ю61294100 0.0 1024586
09:00+4ю61293100 0.1 1024617
12:00+5ю51193100 0.4 1025640
15:00+6ю61188100 0.4 1025589
18:00+7ююв61187100 0.0 1025555
21:00+5ююв6119199 0.0 1025390
23 апреля, пт
пт2300:00+4ююв51195100 0.0 1025389
03:00+4ююв5996100 0.1 1025414
06:00+4ю4796100 1.8 1026339
09:00+6ю4688100 1.8 1027490
12:00+9ю337888 0.0 1026688
15:00+9ю3371100 0.0 1026860
18:00+9юв2272100 0.0 102640
21:00+8в227999 0.0 102522
24 апреля, сб
сб2400:00+6в3588100 0.0 1024100
03:00+6в4888100 0.0 1023271
06:00+5в41087100 0.0 1022386
09:00+8всв5672100 0.0 1019675
12:00+10всв4566100 0.0 10171098
15:00+8в4686100 0.4 10161048
18:00+7в3693100 1.1 1014435
21:00+6в2495100 1.3 1013225